Time,TemperatureF,DewpointF,PressureIn,WindDirection,WindDirectionDegrees,WindSpeedMPH,WindSpeedGustMPH,Humidity,HourlyPrecipIn,Conditions,Clouds,dailyrainin,SoftwareType,DateUTC
2013-12-18 00:03:00,42.8,29.9,30.30,NNE,32,0.0,2.0,60,0.00,,---,0.01,VWS V13.01,2013-12-18 06:03:00,
2013-12-18 00:09:00,42.7,30.2,30.30,NE,36,0.0,0.0,61,0.00,,---,0.00,VWS V13.01,2013-12-18 06:09:00,
2013-12-18 00:14:00,42.5,30.0,30.30,NE,36,0.0,0.0,61,0.00,,---,0.00,VWS V13.01,2013-12-18 06:14:00,
2013-12-18 00:19:00,42.4,30.3,30.30,NE,36,0.0,0.0,62,0.00,,---,0.00,VWS V13.01,2013-12-18 06:19:00,
2013-12-18 00:24:00,42.3,30.2,30.30,NE,36,0.0,0.0,62,0.00,,---,0.00,VWS V13.01,2013-12-18 06:24:00,
2013-12-18 00:29:00,42.1,30.4,30.30,ENE,61,0.0,0.0,63,0.00,,---,0.00,VWS V13.01,2013-12-18 06:29:00,
2013-12-18 00:34:00,41.9,30.2,30.30,ENE,62,0.0,0.0,63,0.00,,---,0.00,VWS V13.01,2013-12-18 06:34:00,
2013-12-18 00:39:00,41.8,29.8,30.29,East,79,0.0,5.0,62,0.00,,---,0.00,VWS V13.01,2013-12-18 06:39:00,
2013-12-18 00:44:00,41.6,29.6,30.29,ENE,75,2.0,5.0,62,0.00,,---,0.00,VWS V13.01,2013-12-18 06:44:00,
2013-12-18 00:49:00,41.6,29.6,30.30,ENE,75,0.0,5.0,62,0.00,,---,0.00,VWS V13.01,2013-12-18 06:49:00,
2013-12-18 00:54:00,41.6,30.0,30.29,ENE,75,0.0,5.0,63,0.00,,---,0.00,VWS V13.01,2013-12-18 06:54:00,
2013-12-18 01:00:00,41.6,29.6,30.29,East,80,0.0,5.0,62,0.00,,---,0.00,VWS V13.01,2013-12-18 07:00:00,
2013-12-18 01:05:00,41.6,30.0,30.29,East,80,0.0,5.0,63,0.00,,---,0.00,VWS V13.01,2013-12-18 07:05:00,
2013-12-18 01:10:00,41.6,30.0,30.29,East,80,0.0,0.0,63,0.00,,---,0.00,VWS V13.01,2013-12-18 07:10:00,
2013-12-18 01:15:00,41.6,30.0,30.29,East,80,0.0,0.0,63,0.00,,---,0.00,VWS V13.01,2013-12-18 07:15:00,
2013-12-18 01:20:00,41.5,29.9,30.29,East,80,0.0,0.0,63,0.00,,---,0.00,VWS V13.01,2013-12-18 07:20:00,
2013-12-18 01:25:00,41.5,30.2,30.30,East,80,0.0,0.0,64,0.00,,---,0.00,VWS V13.01,2013-12-18 07:25:00,
2013-12-18 01:30:00,41.3,30.1,30.29,East,80,0.0,0.0,64,0.00,,---,0.00,VWS V13.01,2013-12-18 07:30:00,
2013-12-18 01:35:00,41.1,29.5,30.29,East,80,0.0,0.0,63,0.00,,---,0.00,VWS V13.01,2013-12-18 07:35:00,
2013-12-18 01:40:00,41.0,29.8,30.29,East,80,0.0,0.0,64,0.00,,---,0.00,VWS V13.01,2013-12-18 07:40:00,
2013-12-18 01:45:00,40.8,30.0,30.29,East,80,0.0,1.0,65,0.00,,---,0.00,VWS V13.01,2013-12-18 07:45:00,
2013-12-18 01:51:00,40.7,30.2,30.29,East,80,0.0,1.0,66,0.00,,---,0.00,VWS V13.01,2013-12-18 07:51:00,
2013-12-18 01:56:00,40.6,30.1,30.30,ESE,111,0.0,4.0,66,0.00,,---,0.00,VWS V13.01,2013-12-18 07:56:00,
2013-12-18 02:01:00,40.6,30.5,30.30,SE,134,0.0,4.0,67,0.00,,---,0.00,VWS V13.01,2013-12-18 08:01:00,
2013-12-18 02:06:00,40.6,30.5,30.30,ESE,121,0.0,4.0,67,0.00,,---,0.00,VWS V13.01,2013-12-18 08:06:00,
2013-12-18 02:11:00,40.6,30.5,30.30,ESE,118,0.0,0.0,67,0.00,,---,0.00,VWS V13.01,2013-12-18 08:11:00,
2013-12-18 02:16:00,40.6,30.5,30.30,ESE,114,0.0,0.0,67,0.00,,---,0.00,VWS V13.01,2013-12-18 08:16:00,
2013-12-18 02:21:00,40.6,30.5,30.30,ESE,114,0.0,0.0,67,0.00,,---,0.00,VWS V13.01,2013-12-18 08:21:00,
2013-12-18 02:26:00,40.5,30.8,30.30,ESE,114,0.0,0.0,68,0.00,,---,0.00,VWS V13.01,2013-12-18 08:26:00,
2013-12-18 02:31:00,40.4,30.7,30.30,ESE,114,0.0,0.0,68,0.00,,---,0.00,VWS V13.01,2013-12-18 08:31:00,
2013-12-18 02:36:00,40.3,30.2,30.30,ESE,118,0.0,2.0,67,0.00,,---,0.00,VWS V13.01,2013-12-18 08:36:00,
2013-12-18 02:41:00,40.1,30.4,30.30,ESE,113,0.0,0.0,68,0.00,,---,0.00,VWS V13.01,2013-12-18 08:41:00,
2013-12-18 02:47:00,40.0,29.9,30.30,ESE,118,1.0,4.0,67,0.00,,---,0.00,VWS V13.01,2013-12-18 08:47:00,
2013-12-18 02:52:00,40.0,29.9,30.30,SE,133,0.0,5.0,67,0.00,,---,0.00,VWS V13.01,2013-12-18 08:52:00,
2013-12-18 02:57:00,40.2,30.1,30.30,SE,126,0.0,8.0,67,0.00,,---,0.00,VWS V13.01,2013-12-18 08:57:00,
2013-12-18 03:02:00,40.4,30.3,30.30,ESE,121,0.0,8.0,67,0.00,,---,0.00,VWS V13.01,2013-12-18 09:02:00,
2013-12-18 03:07:00,40.6,30.5,30.30,ESE,119,0.0,8.0,67,0.00,,---,0.00,VWS V13.01,2013-12-18 09:07:00,
2013-12-18 03:12:00,40.7,30.6,30.30,SE,143,2.0,4.0,67,0.00,,---,0.00,VWS V13.01,2013-12-18 09:12:00,
2013-12-18 03:17:00,40.9,30.8,30.30,SSE,165,0.0,4.0,67,0.00,,---,0.00,VWS V13.01,2013-12-18 09:17:00,
2013-12-18 03:22:00,40.9,30.8,30.30,ESE,113,0.0,4.0,67,0.00,,---,0.00,VWS V13.01,2013-12-18 09:22:00,
2013-12-18 03:27:00,41.0,30.5,30.30,ESE,113,0.0,4.0,66,0.00,,---,0.00,VWS V13.01,2013-12-18 09:27:00,
2013-12-18 03:32:00,41.1,30.6,30.30,SSE,154,3.0,6.0,66,0.00,,---,0.00,VWS V13.01,2013-12-18 09:32:00,
2013-12-18 03:38:00,41.1,30.2,30.30,East,92,0.0,6.0,65,0.00,,---,0.00,VWS V13.01,2013-12-18 09:38:00,
2013-12-18 03:43:00,41.2,30.0,30.30,East,97,0.0,9.0,64,0.00,,---,0.00,VWS V13.01,2013-12-18 09:43:00,
2013-12-18 03:48:00,41.3,30.1,30.30,SSE,164,0.0,9.0,64,0.00,,---,0.00,VWS V13.01,2013-12-18 09:48:00,
2013-12-18 03:53:00,41.3,30.1,30.30,SE,130,0.0,9.0,64,0.00,,---,0.00,VWS V13.01,2013-12-18 09:53:00,
2013-12-18 03:58:00,41.3,30.1,30.30,SE,137,6.0,9.0,64,0.00,,---,0.00,VWS V13.01,2013-12-18 09:58:00,
2013-12-18 04:03:00,41.4,29.8,30.30,ENE,72,1.0,9.0,63,0.00,,---,0.00,VWS V13.01,2013-12-18 10:03:00,
2013-12-18 04:08:00,41.4,29.8,30.30,East,89,0.0,1.0,63,0.00,,---,0.00,VWS V13.01,2013-12-18 10:08:00,
2013-12-18 04:13:00,41.4,29.8,30.30,ESE,117,0.0,9.0,63,0.00,,---,0.00,VWS V13.01,2013-12-18 10:13:00,
2013-12-18 04:18:00,41.5,29.9,30.30,ESE,113,1.0,9.0,63,0.00,,---,0.00,VWS V13.01,2013-12-18 10:18:00,
2013-12-18 04:23:00,41.4,29.8,30.30,ESE,113,0.0,9.0,63,0.00,,---,0.00,VWS V13.01,2013-12-18 10:23:00,
2013-12-18 04:29:00,41.3,29.7,30.30,South,170,7.0,9.0,63,0.00,,---,0.00,VWS V13.01,2013-12-18 10:29:00,
2013-12-18 04:34:00,41.2,29.6,30.30,SE,131,6.0,10.0,63,0.00,,---,0.00,VWS V13.01,2013-12-18 10:34:00,
2013-12-18 04:39:00,41.1,29.5,30.30,SSE,148,6.0,6.0,63,0.00,,---,0.00,VWS V13.01,2013-12-18 10:39:00,
2013-12-18 04:44:00,41.1,29.5,30.30,SE,137,0.0,6.0,63,0.00,,---,0.00,VWS V13.01,2013-12-18 10:44:00,
2013-12-18 04:49:00,41.0,29.8,30.30,SE,136,0.0,7.0,64,0.00,,---,0.00,VWS V13.01,2013-12-18 10:49:00,
2013-12-18 04:54:00,40.9,29.7,30.30,ENE,67,0.0,8.0,64,0.00,,---,0.00,VWS V13.01,2013-12-18 10:54:00,
2013-12-18 04:59:00,40.9,29.7,30.30,ENE,67,1.0,10.0,64,0.00,,---,0.00,VWS V13.01,2013-12-18 10:59:00,
2013-12-18 05:04:00,40.8,29.6,30.29,East,88,4.0,10.0,64,0.00,,---,0.00,VWS V13.01,2013-12-18 11:04:00,
2013-12-18 05:09:00,40.7,29.5,30.30,East,95,3.0,3.0,64,0.00,,---,0.00,VWS V13.01,2013-12-18 11:09:00,
2013-12-18 05:14:00,40.6,29.8,30.30,ESE,114,0.0,8.0,65,0.00,,---,0.00,VWS V13.01,2013-12-18 11:14:00,
2013-12-18 05:19:00,40.5,29.7,30.30,SE,143,0.0,11.0,65,0.00,,---,0.00,VWS V13.01,2013-12-18 11:19:00,
2013-12-18 05:24:00,40.4,29.6,30.30,ESE,113,0.0,11.0,65,0.00,,---,0.00,VWS V13.01,2013-12-18 11:24:00,
2013-12-18 05:29:00,40.2,29.4,30.30,ESE,123,0.0,11.0,65,0.00,,---,0.00,VWS V13.01,2013-12-18 11:29:00,
2013-12-18 05:34:00,40.1,29.3,30.30,ESE,119,0.0,11.0,65,0.00,,---,0.00,VWS V13.01,2013-12-18 11:34:00,
2013-12-18 05:39:00,39.9,29.1,30.30,SSE,156,0.0,7.0,65,0.00,,---,0.00,VWS V13.01,2013-12-18 11:39:00,
2013-12-18 05:44:00,39.8,29.4,30.30,ESE,111,6.0,9.0,66,0.00,,---,0.00,VWS V13.01,2013-12-18 11:44:00,
2013-12-18 05:49:00,39.7,29.7,30.30,ESE,113,4.0,9.0,67,0.00,,---,0.00,VWS V13.01,2013-12-18 11:49:00,
2013-12-18 05:54:00,39.5,29.5,30.30,ENE,61,1.0,10.0,67,0.00,,---,0.00,VWS V13.01,2013-12-18 11:54:00,
2013-12-18 06:00:00,39.4,29.4,30.30,ENE,76,2.0,10.0,67,0.00,,---,0.00,VWS V13.01,2013-12-18 12:00:00,
2013-12-18 06:05:00,39.3,29.3,30.30,East,94,2.0,10.0,67,0.00,,---,0.00,VWS V13.01,2013-12-18 12:05:00,
2013-12-18 06:10:00,39.2,29.2,30.30,ESE,107,6.0,7.0,67,0.00,,---,0.00,VWS V13.01,2013-12-18 12:10:00,
2013-12-18 06:15:00,39.1,29.1,30.30,ESE,103,4.0,7.0,67,0.00,,---,0.00,VWS V13.01,2013-12-18 12:15:00,
2013-12-18 06:20:00,39.0,29.0,30.30,ENE,75,1.0,7.0,67,0.00,,---,0.00,VWS V13.01,2013-12-18 12:20:00,
2013-12-18 06:25:00,38.9,28.9,30.30,East,91,0.0,7.0,67,0.00,,---,0.00,VWS V13.01,2013-12-18 12:25:00,
2013-12-18 06:30:00,38.9,29.2,30.30,East,96,0.0,10.0,68,0.00,,---,0.00,VWS V13.01,2013-12-18 12:30:00,
2013-12-18 06:35:00,38.9,28.9,30.30,East,87,2.0,10.0,67,0.00,,---,0.00,VWS V13.01,2013-12-18 12:35:00,
2013-12-18 06:40:00,38.8,28.8,30.30,ESE,122,1.0,4.0,67,0.00,,---,0.00,VWS V13.01,2013-12-18 12:40:00,
2013-12-18 06:45:00,38.8,28.8,30.30,ESE,115,0.0,6.0,67,0.00,,---,0.00,VWS V13.01,2013-12-18 12:45:00,
2013-12-18 06:51:00,38.8,29.2,30.30,ENE,61,1.0,6.0,68,0.00,,---,0.00,VWS V13.01,2013-12-18 12:51:00,
2013-12-18 06:56:00,38.8,29.2,30.30,ENE,64,0.0,7.0,68,0.00,,---,0.00,VWS V13.01,2013-12-18 12:56:00,
2013-12-18 07:01:00,38.8,28.8,30.30,East,91,4.0,9.0,67,0.00,,---,0.00,VWS V13.01,2013-12-18 13:01:00,
2013-12-18 07:06:00,38.9,28.9,30.30,East,96,2.0,9.0,67,0.00,,---,0.00,VWS V13.01,2013-12-18 13:06:00,
2013-12-18 07:11:00,38.9,28.9,30.31,SE,132,5.0,6.0,67,0.00,,---,0.00,VWS V13.01,2013-12-18 13:11:00,
2013-12-18 07:16:00,38.9,28.9,30.31,ESE,117,0.0,6.0,67,0.00,,---,0.00,VWS V13.01,2013-12-18 13:16:00,
2013-12-18 07:21:00,39.1,29.1,30.31,ESE,113,4.0,7.0,67,0.00,,---,0.00,VWS V13.01,2013-12-18 13:21:00,
2013-12-18 07:26:00,39.1,29.1,30.31,East,91,2.0,7.0,67,0.00,,---,0.00,VWS V13.01,2013-12-18 13:26:00,
2013-12-18 07:31:00,39.2,29.2,30.31,NE,55,0.0,7.0,67,0.00,,---,0.00,VWS V13.01,2013-12-18 13:31:00,
2013-12-18 07:36:00,39.2,29.2,30.31,ESE,111,0.0,10.0,67,0.00,,---,0.00,VWS V13.01,2013-12-18 13:36:00,
2013-12-18 07:42:00,39.2,29.2,30.31,ESE,113,0.0,10.0,67,0.00,,---,0.00,VWS V13.01,2013-12-18 13:42:00,
2013-12-18 07:47:00,39.2,29.2,30.31,East,84,3.0,11.0,67,0.00,,---,0.00,VWS V13.01,2013-12-18 13:47:00,
2013-12-18 07:52:00,39.2,29.2,30.31,NE,54,1.0,11.0,67,0.00,,---,0.00,VWS V13.01,2013-12-18 13:52:00,
2013-12-18 07:57:00,39.1,29.1,30.31,East,88,2.0,11.0,67,0.00,,---,0.00,VWS V13.01,2013-12-18 13:57:00,
2013-12-18 08:02:00,39.2,29.5,30.31,East,96,0.0,11.0,68,0.00,,---,0.00,VWS V13.01,2013-12-18 14:02:00,
2013-12-18 08:07:00,39.2,29.5,30.31,SE,126,2.0,11.0,68,0.00,,---,0.00,VWS V13.01,2013-12-18 14:07:00,
2013-12-18 08:12:00,39.2,29.5,30.31,SE,126,0.0,3.0,68,0.00,,---,0.00,VWS V13.01,2013-12-18 14:12:00,
2013-12-18 08:17:00,39.3,29.6,30.31,ESE,121,0.0,5.0,68,0.00,,---,0.00,VWS V13.01,2013-12-18 14:17:00,
2013-12-18 08:22:00,39.4,29.7,30.31,ESE,121,2.0,5.0,68,0.00,,---,0.00,VWS V13.01,2013-12-18 14:22:00,
2013-12-18 08:27:00,39.5,29.8,30.31,ESE,121,2.0,5.0,68,0.00,,---,0.00,VWS V13.01,2013-12-18 14:27:00,
2013-12-18 08:32:00,39.7,30.0,30.31,East,84,1.0,7.0,68,0.00,,---,0.00,VWS V13.01,2013-12-18 14:32:00,
2013-12-18 08:38:00,39.9,29.9,30.31,SE,133,0.0,9.0,67,0.00,,---,0.00,VWS V13.01,2013-12-18 14:38:00,
2013-12-18 08:43:00,40.1,30.0,30.31,ENE,74,0.0,8.0,67,0.00,,---,0.00,VWS V13.01,2013-12-18 14:43:00,
2013-12-18 08:48:00,40.2,30.1,30.31,ESE,115,0.0,8.0,67,0.00,,---,0.00,VWS V13.01,2013-12-18 14:48:00,
2013-12-18 08:53:00,40.2,30.1,30.31,ESE,114,1.0,8.0,67,0.00,,---,0.00,VWS V13.01,2013-12-18 14:53:00,
2013-12-18 08:58:00,40.3,30.2,30.32,ESE,113,4.0,9.0,67,0.00,,---,0.00,VWS V13.01,2013-12-18 14:58:00,
2013-12-18 09:03:00,40.5,30.4,30.31,East,99,0.0,9.0,67,0.00,,---,0.00,VWS V13.01,2013-12-18 15:03:00,
2013-12-18 09:08:00,40.6,30.5,30.32,ESE,115,0.0,7.0,67,0.00,,---,0.00,VWS V13.01,2013-12-18 15:08:00,
2013-12-18 09:13:00,40.9,30.8,30.31,ENE,71,0.0,7.0,67,0.00,,---,0.00,VWS V13.01,2013-12-18 15:13:00,
2013-12-18 09:18:00,41.1,31.4,30.32,ESE,112,4.0,7.0,68,0.00,,---,0.00,VWS V13.01,2013-12-18 15:18:00,
2013-12-18 09:23:00,41.3,31.2,30.31,East,90,4.0,7.0,67,0.00,,---,0.00,VWS V13.01,2013-12-18 15:23:00,
2013-12-18 09:28:00,41.5,31.7,30.31,ENE,71,0.0,7.0,68,0.00,,---,0.00,VWS V13.01,2013-12-18 15:28:00,
2013-12-18 09:34:00,41.8,31.7,30.31,SE,139,0.0,7.0,67,0.00,,---,0.00,VWS V13.01,2013-12-18 15:34:00,
2013-12-18 09:39:00,42.2,31.7,30.31,SSE,159,0.0,1.0,66,0.00,,---,0.00,VWS V13.01,2013-12-18 15:39:00,
2013-12-18 09:44:00,42.6,31.7,30.32,SSE,165,0.0,4.0,65,0.00,,---,0.00,VWS V13.01,2013-12-18 15:44:00,
2013-12-18 09:49:00,42.9,31.6,30.32,SSE,165,3.0,4.0,64,0.00,,---,0.00,VWS V13.01,2013-12-18 15:49:00,
2013-12-18 09:54:00,43.3,32.0,30.32,SSE,167,1.0,5.0,64,0.00,,---,0.00,VWS V13.01,2013-12-18 15:54:00,
2013-12-18 09:59:00,43.8,32.4,30.31,SSE,164,2.0,7.0,64,0.00,,---,0.00,VWS V13.01,2013-12-18 15:59:00,
2013-12-18 10:04:00,44.2,32.0,30.31,SE,145,2.0,8.0,62,0.00,,---,0.00,VWS V13.01,2013-12-18 16:04:00,
2013-12-18 10:09:00,44.7,32.1,30.31,SSE,161,2.0,5.0,61,0.00,,---,0.00,VWS V13.01,2013-12-18 16:09:00,
2013-12-18 10:14:00,45.1,32.5,30.31,SE,140,0.0,7.0,61,0.00,,---,0.00,VWS V13.01,2013-12-18 16:14:00,
2013-12-18 10:19:00,45.5,32.8,30.31,SE,146,4.0,7.0,61,0.00,,---,0.00,VWS V13.01,2013-12-18 16:19:00,
2013-12-18 10:25:00,45.8,32.3,30.31,SSE,149,0.0,7.0,59,0.00,,---,0.00,VWS V13.01,2013-12-18 16:25:00,
2013-12-18 10:30:00,46.1,32.6,30.30,SE,146,2.0,7.0,59,0.00,,---,0.00,VWS V13.01,2013-12-18 16:30:00,
2013-12-18 10:35:00,46.5,33.0,30.30,SE,146,0.0,7.0,59,0.00,,---,0.00,VWS V13.01,2013-12-18 16:35:00,
2013-12-18 10:40:00,46.9,32.9,30.30,SSE,153,0.0,6.0,58,0.00,,---,0.00,VWS V13.01,2013-12-18 16:40:00,
2013-12-18 10:45:00,47.3,33.3,30.30,SSE,161,0.0,7.0,58,0.00,,---,0.00,VWS V13.01,2013-12-18 16:45:00,
2013-12-18 10:50:00,47.7,32.8,30.29,South,172,0.0,10.0,56,0.00,,---,0.00,VWS V13.01,2013-12-18 16:50:00,
2013-12-18 10:55:00,48.0,33.1,30.29,South,183,5.0,10.0,56,0.00,,---,0.00,VWS V13.01,2013-12-18 16:55:00,
2013-12-18 11:00:00,48.3,32.4,30.29,South,176,5.0,10.0,54,0.00,,---,0.00,VWS V13.01,2013-12-18 17:00:00,
2013-12-18 11:05:00,48.5,33.1,30.29,South,178,0.0,10.0,55,0.00,,---,0.00,VWS V13.01,2013-12-18 17:05:00,
2013-12-18 11:10:00,48.9,33.0,30.28,South,173,1.0,7.0,54,0.00,,---,0.00,VWS V13.01,2013-12-18 17:10:00,
2013-12-18 11:16:00,49.2,33.3,30.28,South,175,1.0,7.0,54,0.00,,---,0.00,VWS V13.01,2013-12-18 17:16:00,
2013-12-18 11:21:00,49.6,33.7,30.27,SSE,159,2.0,9.0,54,0.00,,---,0.00,VWS V13.01,2013-12-18 17:21:00,
2013-12-18 11:26:00,49.8,33.4,30.27,SSW,192,0.0,12.0,53,0.00,,---,0.00,VWS V13.01,2013-12-18 17:26:00,
2013-12-18 11:31:00,50.1,34.1,30.27,ESE,123,2.0,12.0,54,0.00,,---,0.00,VWS V13.01,2013-12-18 17:31:00,
2013-12-18 11:36:00,50.5,34.5,30.26,SE,132,0.0,12.0,54,0.00,,---,0.00,VWS V13.01,2013-12-18 17:36:00,
2013-12-18 11:41:00,51.0,35.0,30.26,South,173,7.0,7.0,54,0.00,,---,0.00,VWS V13.01,2013-12-18 17:41:00,
2013-12-18 11:46:00,51.6,35.5,30.25,SSE,167,0.0,9.0,54,0.00,,---,0.00,VWS V13.01,2013-12-18 17:46:00,
2013-12-18 11:51:00,52.3,35.7,30.25,SSE,166,5.0,9.0,53,0.00,,---,0.00,VWS V13.01,2013-12-18 17:51:00,
2013-12-18 11:56:00,52.9,36.2,30.24,South,177,3.0,10.0,53,0.00,,---,0.00,VWS V13.01,2013-12-18 17:56:00,
2013-12-18 12:01:00,53.3,36.1,30.24,South,183,0.0,10.0,52,0.00,,---,0.00,VWS V13.01,2013-12-18 18:01:00,
2013-12-18 12:07:00,54.0,36.8,30.23,South,183,3.0,10.0,52,0.00,,---,0.00,VWS V13.01,2013-12-18 18:07:00,
2013-12-18 12:12:00,54.3,36.6,30.23,South,182,2.0,6.0,51,0.00,,---,0.00,VWS V13.01,2013-12-18 18:12:00,
2013-12-18 12:17:00,54.7,36.9,30.23,South,181,0.0,6.0,51,0.00,,---,0.00,VWS V13.01,2013-12-18 18:17:00,
2013-12-18 12:22:00,54.9,37.1,30.22,South,177,0.0,6.0,51,0.00,,---,0.00,VWS V13.01,2013-12-18 18:22:00,
2013-12-18 12:27:00,55.0,37.7,30.22,South,176,5.0,7.0,52,0.00,,---,0.00,VWS V13.01,2013-12-18 18:27:00,
2013-12-18 12:32:00,55.1,37.8,30.22,South,171,0.0,8.0,52,0.00,,---,0.00,VWS V13.01,2013-12-18 18:32:00,
2013-12-18 12:37:00,55.4,38.1,30.21,South,171,0.0,8.0,52,0.00,,---,0.00,VWS V13.01,2013-12-18 18:37:00,
2013-12-18 12:42:00,55.7,38.4,30.20,South,171,0.0,4.0,52,0.00,,---,0.00,VWS V13.01,2013-12-18 18:42:00,
2013-12-18 12:47:00,56.0,38.2,30.20,ESE,123,0.0,7.0,51,0.00,,---,0.00,VWS V13.01,2013-12-18 18:47:00,
2013-12-18 12:52:00,56.2,38.3,30.19,South,173,0.0,7.0,51,0.00,,---,0.00,VWS V13.01,2013-12-18 18:52:00,
2013-12-18 12:58:00,56.5,38.6,30.19,South,172,0.0,7.0,51,0.00,,---,0.00,VWS V13.01,2013-12-18 18:58:00,
2013-12-18 13:03:00,56.8,38.4,30.18,SW,215,0.0,7.0,50,0.00,,---,0.00,VWS V13.01,2013-12-18 19:03:00,
2013-12-18 13:08:00,56.9,39.0,30.18,South,182,0.0,0.0,51,0.00,,---,0.00,VWS V13.01,2013-12-18 19:08:00,
2013-12-18 13:13:00,57.2,39.2,30.17,SSW,193,0.0,6.0,51,0.00,,---,0.00,VWS V13.01,2013-12-18 19:13:00,
2013-12-18 13:18:00,57.7,39.7,30.17,SW,231,5.0,7.0,51,0.00,,---,0.00,VWS V13.01,2013-12-18 19:18:00,
2013-12-18 13:23:00,58.1,39.6,30.17,South,175,1.0,7.0,50,0.00,,---,0.00,VWS V13.01,2013-12-18 19:23:00,
2013-12-18 13:28:00,58.4,39.3,30.16,South,184,0.0,7.0,49,0.00,,---,0.00,VWS V13.01,2013-12-18 19:28:00,
2013-12-18 13:33:00,58.6,40.0,30.16,South,171,0.0,7.0,50,0.00,,---,0.00,VWS V13.01,2013-12-18 19:33:00,
2013-12-18 13:38:00,59.0,40.9,30.16,South,175,1.0,5.0,51,0.00,,---,0.00,VWS V13.01,2013-12-18 19:38:00,
2013-12-18 13:43:00,59.0,39.9,30.15,South,178,0.0,5.0,49,0.00,,---,0.00,VWS V13.01,2013-12-18 19:43:00,
2013-12-18 13:49:00,59.3,40.2,30.15,South,178,0.0,5.0,49,0.00,,---,0.00,VWS V13.01,2013-12-18 19:49:00,
2013-12-18 13:54:00,59.6,40.4,30.15,South,179,3.0,6.0,49,0.00,,---,0.00,VWS V13.01,2013-12-18 19:54:00,
2013-12-18 13:59:00,60.0,41.3,30.14,South,178,9.0,9.0,50,0.00,,---,0.00,VWS V13.01,2013-12-18 19:59:00,
2013-12-18 14:04:00,60.4,41.2,30.14,South,180,0.0,9.0,49,0.00,,---,0.00,VWS V13.01,2013-12-18 20:04:00,
2013-12-18 14:09:00,60.8,41.5,30.13,South,190,0.0,6.0,49,0.00,,---,0.00,VWS V13.01,2013-12-18 20:09:00,
2013-12-18 14:15:00,61.1,41.8,30.13,South,187,0.0,6.0,49,0.00,,---,0.00,VWS V13.01,2013-12-18 20:15:00,
2013-12-18 14:20:00,61.4,41.6,30.13,South,187,4.0,6.0,48,0.00,,---,0.00,VWS V13.01,2013-12-18 20:20:00,
2013-12-18 14:25:00,61.7,41.8,30.13,South,183,0.0,6.0,48,0.00,,---,0.00,VWS V13.01,2013-12-18 20:25:00,
2013-12-18 14:30:00,62.1,42.7,30.12,South,183,0.0,6.0,49,0.00,,---,0.00,VWS V13.01,2013-12-18 20:30:00,
2013-12-18 14:35:00,62.4,41.9,30.12,South,183,0.0,6.0,47,0.00,,---,0.00,VWS V13.01,2013-12-18 20:35:00,
2013-12-18 14:40:00,62.6,42.1,30.11,South,183,1.0,4.0,47,0.00,,---,0.00,VWS V13.01,2013-12-18 20:40:00,
2013-12-18 14:45:00,62.8,42.3,30.11,SSW,200,6.0,6.0,47,0.00,,---,0.00,VWS V13.01,2013-12-18 20:45:00,
2013-12-18 14:50:00,63.1,42.6,30.11,South,191,3.0,6.0,47,0.00,,---,0.00,VWS V13.01,2013-12-18 20:50:00,
2013-12-18 14:55:00,63.2,42.7,30.10,South,178,4.0,11.0,47,0.00,,---,0.00,VWS V13.01,2013-12-18 20:55:00,
2013-12-18 15:00:00,63.4,42.8,30.10,SSW,202,2.0,11.0,47,0.00,,---,0.00,VWS V13.01,2013-12-18 21:00:00,
2013-12-18 15:06:00,63.4,42.3,30.10,West,267,3.0,11.0,46,0.00,,---,0.00,VWS V13.01,2013-12-18 21:06:00,
2013-12-18 15:11:00,63.2,42.1,30.10,SSW,194,6.0,13.0,46,0.00,,---,0.00,VWS V13.01,2013-12-18 21:11:00,
2013-12-18 15:16:00,62.9,42.4,30.10,SSW,205,3.0,13.0,47,0.00,,---,0.00,VWS V13.01,2013-12-18 21:16:00,
2013-12-18 15:21:00,62.8,42.3,30.10,South,183,4.0,13.0,47,0.00,,---,0.00,VWS V13.01,2013-12-18 21:21:00,
2013-12-18 15:26:00,62.6,42.1,30.09,SSW,194,0.0,13.0,47,0.00,,---,0.00,VWS V13.01,2013-12-18 21:26:00,
2013-12-18 15:31:00,62.5,42.6,30.09,SW,215,2.0,13.0,48,0.00,,---,0.00,VWS V13.01,2013-12-18 21:31:00,
2013-12-18 15:36:00,62.4,42.5,30.09,South,186,3.0,13.0,48,0.00,,---,0.00,VWS V13.01,2013-12-18 21:36:00,
2013-12-18 15:41:00,62.2,42.3,30.09,South,171,0.0,10.0,48,0.00,,---,0.00,VWS V13.01,2013-12-18 21:41:00,
2013-12-18 15:46:00,62.1,42.2,30.09,South,179,2.0,10.0,48,0.00,,---,0.00,VWS V13.01,2013-12-18 21:46:00,
2013-12-18 15:51:00,62.0,42.6,30.09,South,173,0.0,10.0,49,0.00,,---,0.00,VWS V13.01,2013-12-18 21:51:00,
2013-12-18 15:57:00,61.9,42.5,30.09,South,171,0.0,10.0,49,0.00,,---,0.00,VWS V13.01,2013-12-18 21:57:00,
2013-12-18 16:02:00,61.8,43.0,30.09,South,183,0.0,10.0,50,0.00,,---,0.00,VWS V13.01,2013-12-18 22:02:00,
2013-12-18 16:07:00,61.7,42.4,30.08,SSE,152,0.0,10.0,49,0.00,,---,0.00,VWS V13.01,2013-12-18 22:07:00,
2013-12-18 16:12:00,61.6,42.8,30.08,SSW,207,1.0,6.0,50,0.00,,---,0.00,VWS V13.01,2013-12-18 22:12:00,
2013-12-18 16:17:00,61.5,42.7,30.08,South,182,2.0,9.0,50,0.00,,---,0.00,VWS V13.01,2013-12-18 22:17:00,
2013-12-18 16:22:00,61.4,42.6,30.08,South,180,1.0,9.0,50,0.00,,---,0.00,VWS V13.01,2013-12-18 22:22:00,
2013-12-18 16:27:00,61.3,42.5,30.09,South,180,3.0,9.0,50,0.00,,---,0.00,VWS V13.01,2013-12-18 22:27:00,
2013-12-18 16:32:00,61.2,43.0,30.09,South,180,2.0,9.0,51,0.00,,---,0.00,VWS V13.01,2013-12-18 22:32:00,
2013-12-18 16:37:00,61.1,42.8,30.08,South,169,1.0,9.0,51,0.00,,---,0.00,VWS V13.01,2013-12-18 22:37:00,
2013-12-18 16:42:00,60.8,42.6,30.08,South,176,0.0,5.0,51,0.00,,---,0.00,VWS V13.01,2013-12-18 22:42:00,
2013-12-18 16:48:00,60.6,42.4,30.08,South,176,0.0,8.0,51,0.00,,---,0.00,VWS V13.01,2013-12-18 22:48:00,
2013-12-18 16:53:00,60.4,42.2,30.08,South,186,2.0,12.0,51,0.00,,---,0.00,VWS V13.01,2013-12-18 22:53:00,
2013-12-18 16:58:00,60.3,42.1,30.08,South,180,0.0,12.0,51,0.00,,---,0.00,VWS V13.01,2013-12-18 22:58:00,
2013-12-18 17:03:00,60.1,42.4,30.08,South,180,0.0,12.0,52,0.00,,---,0.00,VWS V13.01,2013-12-18 23:03:00,
2013-12-18 17:08:00,59.8,42.7,30.08,South,179,4.0,6.0,53,0.00,,---,0.00,VWS V13.01,2013-12-18 23:08:00,
2013-12-18 17:13:00,59.4,42.3,30.08,South,175,0.0,11.0,53,0.00,,---,0.00,VWS V13.01,2013-12-18 23:13:00,
2013-12-18 17:18:00,59.0,42.4,30.08,South,180,4.0,11.0,54,0.00,,---,0.00,VWS V13.01,2013-12-18 23:18:00,
2013-12-18 17:23:00,58.9,42.3,30.08,South,182,1.0,11.0,54,0.00,,---,0.00,VWS V13.01,2013-12-18 23:23:00,
2013-12-18 17:28:00,58.5,42.4,30.08,South,178,4.0,12.0,55,0.00,,---,0.00,VWS V13.01,2013-12-18 23:28:00,
2013-12-18 17:34:00,58.3,42.2,30.08,South,173,1.0,12.0,55,0.00,,---,0.00,VWS V13.01,2013-12-18 23:34:00,
2013-12-18 17:39:00,58.1,42.0,30.08,South,180,8.0,12.0,55,0.00,,---,0.00,VWS V13.01,2013-12-18 23:39:00,
2013-12-18 17:44:00,58.0,41.9,30.08,South,169,7.0,12.0,55,0.00,,---,0.00,VWS V13.01,2013-12-18 23:44:00,
2013-12-18 17:49:00,57.8,42.2,30.08,South,184,7.0,12.0,56,0.00,,---,0.00,VWS V13.01,2013-12-18 23:49:00,
2013-12-18 17:54:00,57.7,42.1,30.08,South,175,8.0,12.0,56,0.00,,---,0.00,VWS V13.01,2013-12-18 23:54:00,
2013-12-18 17:59:00,57.6,42.0,30.08,SSW,192,0.0,12.0,56,0.00,,---,0.00,VWS V13.01,2013-12-18 23:59:00,
2013-12-18 18:04:00,57.4,41.8,30.07,South,180,5.0,12.0,56,0.00,,---,0.00,VWS V13.01,2013-12-19 00:04:00,
2013-12-18 18:09:00,57.3,42.2,30.07,SSE,164,7.0,7.0,57,0.00,,---,0.00,VWS V13.01,2013-12-19 00:09:00,
2013-12-18 18:14:00,57.2,42.1,30.07,South,182,5.0,8.0,57,0.00,,---,0.00,VWS V13.01,2013-12-19 00:14:00,
2013-12-18 18:19:00,57.1,42.0,30.08,SW,220,0.0,9.0,57,0.00,,---,0.00,VWS V13.01,2013-12-19 00:19:00,
2013-12-18 18:24:00,57.0,42.4,30.08,South,184,9.0,11.0,58,0.00,,---,0.00,VWS V13.01,2013-12-19 00:24:00,
2013-12-18 18:30:00,56.9,42.3,30.08,SSW,198,3.0,11.0,58,0.00,,---,0.00,VWS V13.01,2013-12-19 00:30:00,
2013-12-18 18:35:00,56.8,42.2,30.08,SSE,164,4.0,11.0,58,0.00,,---,0.00,VWS V13.01,2013-12-19 00:35:00,
2013-12-18 18:40:00,56.6,42.0,30.08,SSW,194,1.0,7.0,58,0.00,,---,0.00,VWS V13.01,2013-12-19 00:40:00,
2013-12-18 18:45:00,56.4,42.3,30.08,South,173,3.0,10.0,59,0.00,,---,0.00,VWS V13.01,2013-12-19 00:45:00,
2013-12-18 18:50:00,56.1,42.0,30.08,South,185,3.0,10.0,59,0.00,,---,0.00,VWS V13.01,2013-12-19 00:50:00,
2013-12-18 18:55:00,56.0,41.9,30.07,SW,214,0.0,12.0,59,0.00,,---,0.00,VWS V13.01,2013-12-19 00:55:00,
2013-12-18 19:00:00,55.9,42.2,30.07,South,184,0.0,12.0,60,0.00,,---,0.00,VWS V13.01,2013-12-19 01:00:00,
2013-12-18 19:05:00,55.8,42.1,30.08,SSW,205,3.0,16.0,60,0.00,,---,0.00,VWS V13.01,2013-12-19 01:05:00,
2013-12-18 19:10:00,55.7,42.0,30.08,South,181,7.0,11.0,60,0.00,,---,0.00,VWS V13.01,2013-12-19 01:10:00,
2013-12-18 19:16:00,55.6,42.0,30.08,South,179,7.0,14.0,60,0.00,,---,0.00,VWS V13.01,2013-12-19 01:16:00,
2013-12-18 19:21:00,55.5,41.9,30.08,SSW,192,3.0,14.0,60,0.00,,---,0.00,VWS V13.01,2013-12-19 01:21:00,
2013-12-18 19:26:00,55.4,41.8,30.08,SSW,192,0.0,14.0,60,0.00,,---,0.00,VWS V13.01,2013-12-19 01:26:00,
2013-12-18 19:31:00,55.2,42.0,30.08,SSW,192,1.0,14.0,61,0.00,,---,0.00,VWS V13.01,2013-12-19 01:31:00,
2013-12-18 19:36:00,55.0,41.8,30.08,South,185,0.0,14.0,61,0.00,,---,0.00,VWS V13.01,2013-12-19 01:36:00,
2013-12-18 19:41:00,54.9,41.7,30.08,South,180,1.0,5.0,61,0.00,,---,0.00,VWS V13.01,2013-12-19 01:41:00,
2013-12-18 19:46:00,54.8,41.6,30.08,South,184,0.0,7.0,61,0.00,,---,0.00,VWS V13.01,2013-12-19 01:46:00,
2013-12-18 19:51:00,54.7,42.0,30.08,SSE,161,0.0,7.0,62,0.00,,---,0.00,VWS V13.01,2013-12-19 01:51:00,
2013-12-18 19:56:00,54.5,41.8,30.08,South,187,0.0,7.0,62,0.00,,---,0.00,VWS V13.01,2013-12-19 01:56:00,
2013-12-18 20:01:00,54.3,42.0,30.08,South,180,2.0,7.0,63,0.00,,---,0.00,VWS V13.01,2013-12-19 02:01:00,
2013-12-18 20:07:00,54.1,41.8,30.08,South,188,0.0,7.0,63,0.00,,---,0.00,VWS V13.01,2013-12-19 02:07:00,
2013-12-18 20:12:00,54.0,41.7,30.08,South,186,2.0,5.0,63,0.00,,---,0.00,VWS V13.01,2013-12-19 02:12:00,
2013-12-18 20:17:00,53.8,41.5,30.07,South,186,4.0,5.0,63,0.00,,---,0.00,VWS V13.01,2013-12-19 02:17:00,
2013-12-18 20:22:00,53.6,41.3,30.07,SSW,195,0.0,9.0,63,0.00,,---,0.00,VWS V13.01,2013-12-19 02:22:00,
2013-12-18 20:27:00,53.6,41.3,30.08,SSW,192,0.0,9.0,63,0.00,,---,0.00,VWS V13.01,2013-12-19 02:27:00,
2013-12-18 20:32:00,53.5,41.2,30.07,South,188,0.0,9.0,63,0.00,,---,0.00,VWS V13.01,2013-12-19 02:32:00,
2013-12-18 20:37:00,53.5,41.2,30.07,South,185,0.0,9.0,63,0.00,,---,0.00,VWS V13.01,2013-12-19 02:37:00,
2013-12-18 20:42:00,53.4,41.5,30.07,South,185,0.0,2.0,64,0.00,,---,0.00,VWS V13.01,2013-12-19 02:42:00,
2013-12-18 20:47:00,53.3,41.5,30.07,South,185,0.0,4.0,64,0.00,,---,0.00,VWS V13.01,2013-12-19 02:47:00,
2013-12-18 20:53:00,53.2,41.3,30.07,South,185,0.0,4.0,64,0.00,,---,0.00,VWS V13.01,2013-12-19 02:53:00,
2013-12-18 20:58:00,53.1,41.3,30.07,South,185,0.0,4.0,64,0.00,,---,0.00,VWS V13.01,2013-12-19 02:58:00,
2013-12-18 21:03:00,53.1,41.3,30.07,South,182,2.0,6.0,64,0.00,,---,0.00,VWS V13.01,2013-12-19 03:03:00,
2013-12-18 21:08:00,53.1,41.3,30.06,South,182,0.0,0.0,64,0.00,,---,0.00,VWS V13.01,2013-12-19 03:08:00,
2013-12-18 21:13:00,53.1,41.3,30.06,South,172,1.0,10.0,64,0.00,,---,0.00,VWS V13.01,2013-12-19 03:13:00,
2013-12-18 21:18:00,53.3,41.5,30.06,SSW,211,3.0,10.0,64,0.00,,---,0.00,VWS V13.01,2013-12-19 03:18:00,
2013-12-18 21:23:00,53.6,41.3,30.06,SSW,196,4.0,10.0,63,0.00,,---,0.00,VWS V13.01,2013-12-19 03:23:00,
2013-12-18 21:28:00,53.9,41.6,30.06,SW,221,3.0,11.0,63,0.00,,---,0.00,VWS V13.01,2013-12-19 03:28:00,
2013-12-18 21:33:00,54.1,41.8,30.06,South,182,8.0,15.0,63,0.00,,---,0.00,VWS V13.01,2013-12-19 03:33:00,
2013-12-18 21:39:00,54.6,41.9,30.06,SSW,205,3.0,10.0,62,0.00,,---,0.00,VWS V13.01,2013-12-19 03:39:00,
2013-12-18 21:44:00,54.9,42.1,30.06,SSW,195,7.0,12.0,62,0.00,,---,0.00,VWS V13.01,2013-12-19 03:44:00,
2013-12-18 21:49:00,55.1,41.9,30.06,SSW,194,6.0,13.0,61,0.00,,---,0.00,VWS V13.01,2013-12-19 03:49:00,
2013-12-18 21:54:00,55.3,42.1,30.05,South,177,4.0,13.0,61,0.00,,---,0.00,VWS V13.01,2013-12-19 03:54:00,
2013-12-18 21:59:00,55.5,42.3,30.06,SSW,201,4.0,16.0,61,0.00,,---,0.00,VWS V13.01,2013-12-19 03:59:00,
2013-12-18 22:04:00,55.6,42.0,30.06,SSW,202,4.0,17.0,60,0.00,,---,0.00,VWS V13.01,2013-12-19 04:04:00,
2013-12-18 22:09:00,55.8,42.1,30.05,SSW,208,1.0,10.0,60,0.00,,---,0.00,VWS V13.01,2013-12-19 04:09:00,
2013-12-18 22:14:00,55.8,42.1,30.05,South,189,4.0,13.0,60,0.00,,---,0.00,VWS V13.01,2013-12-19 04:14:00,
2013-12-18 22:20:00,55.7,42.0,30.06,South,190,0.0,13.0,60,0.00,,---,0.00,VWS V13.01,2013-12-19 04:20:00,
2013-12-18 22:25:00,55.5,41.9,30.06,South,186,0.0,13.0,60,0.00,,---,0.00,VWS V13.01,2013-12-19 04:25:00,
2013-12-18 22:30:00,55.3,42.1,30.06,WSW,240,5.0,13.0,61,0.00,,---,0.00,VWS V13.01,2013-12-19 04:30:00,
2013-12-18 22:35:00,55.2,42.0,30.06,SW,215,4.0,13.0,61,0.00,,---,0.00,VWS V13.01,2013-12-19 04:35:00,
2013-12-18 22:40:00,55.3,42.1,30.05,SW,234,9.0,13.0,61,0.00,,---,0.00,VWS V13.01,2013-12-19 04:40:00,
2013-12-18 22:45:00,55.4,42.2,30.06,South,186,0.0,13.0,61,0.00,,---,0.00,VWS V13.01,2013-12-19 04:45:00,
2013-12-18 22:50:00,55.4,42.2,30.06,SW,225,0.0,13.0,61,0.00,,---,0.00,VWS V13.01,2013-12-19 04:50:00,
2013-12-18 22:55:00,55.3,42.1,30.06,SW,223,6.0,13.0,61,0.00,,---,0.00,VWS V13.01,2013-12-19 04:55:00,
2013-12-18 23:00:00,55.3,42.1,30.06,SW,218,4.0,13.0,61,0.00,,---,0.00,VWS V13.01,2013-12-19 05:00:00,
2013-12-18 23:01:00,55.3,42.1,30.06,South,191,5.0,13.0,61,0.00,,---,0.00,VWS V13.01,2013-12-19 05:01:00,
2013-12-18 23:02:00,55.3,42.1,30.06,South,182,4.0,13.0,61,0.00,,---,0.00,VWS V13.01,2013-12-19 05:02:00,
2013-12-18 23:03:00,55.4,42.2,30.06,SSW,205,6.0,13.0,61,0.00,,---,0.00,VWS V13.01,2013-12-19 05:03:00,
2013-12-18 23:08:00,55.5,42.3,30.05,WSW,246,5.0,6.0,61,0.00,,---,0.00,VWS V13.01,2013-12-19 05:08:00,
2013-12-18 23:14:00,55.7,42.5,30.05,South,186,1.0,14.0,61,0.00,,---,0.00,VWS V13.01,2013-12-19 05:14:00,
2013-12-18 23:19:00,55.8,42.6,30.05,South,171,1.0,14.0,61,0.00,,---,0.00,VWS V13.01,2013-12-19 05:19:00,
2013-12-18 23:24:00,55.9,42.7,30.05,SSW,193,10.0,14.0,61,0.00,,---,0.00,VWS V13.01,2013-12-19 05:24:00,
2013-12-18 23:29:00,55.9,42.7,30.05,SSW,205,2.0,14.0,61,0.00,,---,0.00,VWS V13.01,2013-12-19 05:29:00,
2013-12-18 23:34:00,55.8,42.6,30.05,SSW,205,6.0,14.0,61,0.00,,---,0.00,VWS V13.01,2013-12-19 05:34:00,
2013-12-18 23:39:00,55.7,42.5,30.05,SW,225,2.0,6.0,61,0.00,,---,0.00,VWS V13.01,2013-12-19 05:39:00,
2013-12-18 23:44:00,55.5,42.7,30.05,SSW,201,6.0,12.0,62,0.00,,---,0.00,VWS V13.01,2013-12-19 05:44:00,
2013-12-18 23:49:00,55.3,42.5,30.05,SW,221,2.0,12.0,62,0.00,,---,0.00,VWS V13.01,2013-12-19 05:49:00,
2013-12-18 23:54:00,55.1,42.3,30.04,SW,221,0.0,12.0,62,0.00,,---,0.00,VWS V13.01,2013-12-19 05:54:00,
2013-12-18 23:59:00,55.0,42.7,30.04,SSW,211,1.0,12.0,63,0.00,,---,0.00,VWS V13.01,2013-12-19 05:59:00,